STARLINK-5568, 55372

Orbit data source: Space-Track

STARLINK-5568, 55372 is a payload satellite owned by SpaceX/Seattle (US) in LEO that was launched on Thu, 26 Jan 2023 UTC via an FALCON 9 launch vehicle from the Air Force Eastern Test Range (AFETR). Payload-class satellites include a variety of spacecraft equipped with specific instruments for various scientific and technological missions. These include communications satellites like Starlink; space stations such as the ISS; scientific satellites like the Hubble; Earth observation satellites from companies like Planet Labs, Umbra, and HawkEye 360; GPS; miniature CubeSats for education and research; and military/defense satellites.

Loading next visibility...
Identifier
55372, 2023-013AT
Orbit
LEO
Country
Flag of USUS
Related business
Manufacturer
SpaceX/Seattle
Mission
Operational Commercial Communications
Bus & Motor
STARLINK, Unknown motor
Mass
305 kg wet, ~290 kg dry
Launch date (UTC)
2023-01-26 (3 years ago)
Launch vehicle
FALCON 9
Launch site
Air Force Eastern Test Range (AFETR)
Object type
Payload
Rocket body
Debris
Shape & HBR
Box + 1 Pan, 10.1 m
Radar Cross Section
13.562 m², Large (>1 m²)

Expand to show TLE details & history
Last TLE update: 21 hours ago

TLE from 21 hours ago
0 STARLINK-5568
1 55372U 23013AT  25348.88435666  .00002109  00000-0  17110-3 0  9994
2 55372  43.0041  54.0311 0001532 282.2707  77.7964 15.02552423158800
Epoch: 2025-12-14T21:13Z
TLE epoch observation values (Epoch: 2025-12-14T21:13:28.415Z)
Latitude
-0°
Longitude
11.87183°
Altitude
558.583 km
Speed
7.584 km/s
True Right ascension
03h 36m 07s
True Declination
0° 00' 00"
Sunlit
Object was in full shadow at epoch
Visualization orbit readout
Latitude
Unknown
Longitude
Unknown
Altitude
Unknown
Speed
Unknown
Apparent Right ascension
Unknown
Apparent Declination
Unknown
Sunlit
N/A
Visualization observer readout
Local Sidereal Time
17:04:32
Azimuth
Unknown
Elevation
Unknown
Doppler factor
Unknown
Orbital elements
Apogee altitude
562.015 km
Perigee altitude
559.889 km
Semi-major axis
6,939.089 km
Eccentricity
0.00015
Inclination
43.0041°
RAAN
54.0311°
Arg. of periapsis
282.2707°
True anomaly
77.81356°
Mean anomaly
77.7964°
Eccentric anomaly
77.80498°
Mean motion
3.75482 °/min
Orbital period
95.88 mins
BSTAR
0.0001711
Loading maneuver chart data...
Computing Atmospheric mass density...
Loading historical data...
Loading historical data...
Loading historical data...
Loading historical data...
Loading historical data...
Loading historical data...
Loading historical data...

Documentation

Showing up to 5 results
|